sat.trackr.live / text

‹ back to catalog

STARLINK-36836

NORAD 68065 · 2026-041AB

PAYLOAD ACTIVE UNKNOWN

§ Identity

Operator
Country
US
Launch date
2026-03-02
Launch site
AFETR
Launch vehicle
Mass (kg)
RCS (m²)

Purposes: comms

External: N2YO · Heavens-Above · Gunter

§ Orbital elements

Epoch: 2026-09-19T14:47:34.641024Z

Period
93.85 min
Inclination
53.1591°
Eccentricity
0.0001007
Mean motion
15.34410390 rev/d
Perigee alt
462.0 km
Apogee alt
463.4 km
Semi-major
6,840.8 km
B*
4.6537e-4
RAAN
225.9474°
Arg perigee
92.6714°
Mean anomaly
267.4404°
Rev number
3,112

§ Raw data

STARLINK-368361 68065U 26041AB  26262.61637316  .00015385  00000+0  46537-3 0  99982 68065  53.1591 225.9474 0001007  92.6714 267.4404 15.34410390 31125

JSON: /api/v1/satellites/68065 · /tle

For live sub-satellite position, see the globe view (requires WebGL).

§ Visibility from observer

Set your observer location to see the next 7 days of passes ≥ 10°. The values pass through the URL so the page stays shareable.

No JS? Fill the form by hand. The geolocation button needs JavaScript.